Aqualoyalty — A8ZC6 — position and weather

sailwx.info

Track history (hours):
 
Tides and Currents Weather Stations Pressure Air Temp Water Temp Dewpoint Dewpoint Depression Visibility Wind Speed Wind Dir Waves Ship Positions

Aqualoyalty

Last reported at 2014-Jul-25 05:13 UTC. Time now 2014-Jul-31 11:36 UTC.
Position N 27°31' W 115°43'.

Length 249 m; draft 8.5 m.

Type: Tanker. MMSI: 636015177.

Date/timePositionNaut miles runAvg speedWind from/ knotsBaromVisibWave heightAir tempDewpointWater temp
2014-Jul-25 05:13N 27°31' W 115°43'1012.8
2014-Jul-25 04:28N 27°38' W 115°50'1213.6
2014-Jul-25 03:33N 27°48' W 115°59'1212.3
2014-Jul-25 02:33N 27°57' W 116°07'1311.9
2014-Jul-25 01:26N 28°08' W 116°16'1112.1
2014-Jul-25 00:33N 28°17' W 116°23'1212.1
2014-Jul-24 23:33N 28°26' W 116°31'1211.5
2014-Jul-24 22:33N 28°36' W 116°39'59 9.9
2014-Jul-24 16:33N 29°23' W 117°20'16 7.5
2014-Jul-24 14:29N 29°36' W 117°31'1612.0
2014-Jul-24 13:10N 29°48' W 117°41'812.1
2014-Jul-24 12:32N 29°54' W 117°47'1212.3
2014-Jul-24 11:33N 30°04' W 117°55'1212.3
2014-Jul-24 10:33N 30°14' W 118°03'1212.3
2014-Jul-24 09:33N 30°23' W 118°12'1212.2
2014-Jul-24 08:33N 30°33' W 118°21'1212.2
2014-Jul-24 07:33N 30°43' W 118°29'1212.3
2014-Jul-24 06:33N 30°53' W 118°38'1212.1
2014-Jul-24 05:33N 31°03' W 118°46'1211.8
2014-Jul-24 04:33N 31°12' W 118°54'1212.2
2014-Jul-24 03:33N 31°21' W 119°03'1212.1
2014-Jul-24 02:33N 31°31' W 119°12'1212.2
2014-Jul-24 01:33N 31°41' W 119°20'1212.5
2014-Jul-24 00:33N 31°51' W 119°29'1212.4
2014-Jul-23 23:34N 32°01' W 119°38'1212.1
2014-Jul-23 22:33N 32°11' W 119°46'1212.2
2014-Jul-23 21:33N 32°21' W 119°54'1212.3
2014-Jul-23 20:33N 32°30' W 120°04'1212.1
2014-Jul-23 19:33N 32°40' W 120°13'1611.9
2014-Jul-23 18:13N 32°52' W 120°24'811.9
2014-Jul-23 17:31N 32°59' W 120°30'1212.1
2014-Jul-23 16:33N 33°09' W 120°38'1312.9
2014-Jul-23 15:33N 33°19' W 120°47'1212.5
2014-Jul-23 14:33N 33°29' W 120°57'1711.9
2014-Jul-23 13:08N 33°42' W 121°08'712.1
2014-Jul-23 12:33N 33°48' W 121°13'2511.9
2014-Jul-23 10:28N 34°08' W 121°31'1212.5
2014-Jul-23 09:33N 34°17' W 121°39'1212.6
2014-Jul-23 08:33N 34°28' W 121°47'1212.5
2014-Jul-23 07:33N 34°39' W 121°55'1211.9
2014-Jul-23 06:32N 34°49' W 122°02'1211.9
2014-Jul-23 05:33N 34°60' W 122°09'1212.0
2014-Jul-23 04:31N 35°11' W 122°17'1111.7
2014-Jul-23 03:33N 35°20' W 122°23'1211.7
2014-Jul-23 02:33N 35°30' W 122°30'1211.8
2014-Jul-23 01:30N 35°41' W 122°38'1112.1
2014-Jul-23 00:33N 35°51' W 122°45'1211.5
2014-Jul-22 23:29N 36°02' W 122°52'1211.5
2014-Jul-22 22:29N 36°12' W 122°59'2211.3
2014-Jul-22 20:32N 36°33' W 123°09'1111.3
2014-Jul-22 19:33N 36°44' W 123°10'1111.1
2014-Jul-22 18:33N 36°54' W 123°07'1010.4
2014-Jul-22 17:33N 37°05' W 123°07'1010.2
2014-Jul-22 16:33N 37°15' W 123°08'1010.0
2014-Jul-22 15:33N 37°25' W 123°08'9 9.2
2014-Jul-22 14:33N 37°34' W 123°04'1110.7
2014-Jul-22 13:33N 37°40' W 122°53'1010.3
2014-Jul-22 12:33N 37°46' W 122°42'1312.6
2014-Jul-22 11:33N 37°50' W 122°27'6 5.5
2014-Jul-22 10:32N 37°46' W 122°22'0 0.0
2014-Jul-22 09:32N 37°46' W 122°22'0 0.0
2014-Jul-22 08:32N 37°46' W 122°22'0 0.0
2014-Jul-22 07:32N 37°46' W 122°22'0 0.1
2014-Jul-22 06:32N 37°46' W 122°21'0 0.1
2014-Jul-22 05:32N 37°46' W 122°22'0 0.2
2014-Jul-22 04:32N 37°46' W 122°21'0 0.1
2014-Jul-22 03:32N 37°46' W 122°21'0 0.4
2014-Jul-22 02:33N 37°46' W 122°22'10 9.9
2014-Jul-22 01:33N 37°55' W 122°27'8 8.0
2014-Jul-22 00:33N 38°02' W 122°22'1110.9
2014-Jul-21 23:33N 38°02' W 122°08'0 0.0
2014-Jul-20 17:10N 38°02' W 122°07'1 0.9
2014-Jul-20 16:34N 38°02' W 122°08'7 7.1
2014-Jul-20 15:34N 38°04' W 122°17'1010.3
2014-Jul-20 14:34N 37°57' W 122°27'8 8.0
2014-Jul-20 13:34N 37°49' W 122°29'1211.8
2014-Jul-20 12:34N 37°44' W 122°42'9 9.4
2014-Jul-20 11:34N 37°38' W 122°52'1010.3
2014-Jul-20 10:33N 37°32' W 123°03'10 9.6
2014-Jul-20 09:33N 37°23' W 123°06'9 9.0
2014-Jul-20 08:33N 37°15' W 123°10'4 4.1
2014-Jul-20 07:34N 37°11' W 123°08'3 2.5
2014-Jul-20 06:33N 37°08' W 123°08'9 9.1
2014-Jul-20 05:34N 37°15' W 123°17'2 2.1
2014-Jul-20 04:33N 37°17' W 123°18'5 4.6
2014-Jul-20 03:34N 37°12' W 123°15'1110.7
2014-Jul-20 02:34N 37°02' W 123°11'1111.3
2014-Jul-20 01:34N 36°51' W 123°09'1211.7
2014-Jul-20 00:34N 36°40' W 123°08'1211.5
2014-Jul-19 23:33N 36°28' W 123°08'1111.2
2014-Jul-19 22:32N 36°17' W 123°03'1111.5
2014-Jul-19 21:33N 36°08' W 122°55'1211.6
2014-Jul-19 20:33N 35°58' W 122°48'1111.3
2014-Jul-19 19:33N 35°48' W 122°42'1111.1
2014-Jul-19 18:33N 35°38' W 122°36'1111.0
2014-Jul-19 17:33N 35°28' W 122°28'1111.3
2014-Jul-19 16:33N 35°19' W 122°21'1313.3
2014-Jul-19 15:33N 35°07' W 122°13'1211.4
2014-Jul-19 14:32N 34°57' W 122°06'1111.6
2014-Jul-19 13:33N 34°47' W 121°59'1111.2
2014-Jul-19 12:34N 34°38' W 121°51'1111.2
2014-Jul-19 11:33N 34°29' W 121°43'1110.5
2014-Jul-19 10:32N 34°19' W 121°39'1010.5
2014-Jul-19 09:33N 34°11' W 121°31'1111.2
2014-Jul-19 08:32N 34°04' W 121°20'7610.4
2014-Jul-19 01:14N 33°43' W 119°52'811.4
2014-Jul-19 00:32N 33°43' W 119°43'1111.2
2014-Jul-18 23:32N 33°43' W 119°29'5611.2
2014-Jul-18 18:31N 33°35' W 118°23'9 8.9
2014-Jul-18 17:33N 33°38' W 118°13'7 6.8
2014-Jul-18 16:32N 33°45' W 118°13'4 0.1
2014-Jul-17 08:12N 33°42' W 118°09'0 0.0
2014-Jul-17 07:21N 33°42' W 118°09'0 0.1
2014-Jul-17 06:30N 33°42' W 118°09'0 0.0
2014-Jul-17 05:18N 33°42' W 118°09'0 0.0
2014-Jul-17 04:21N 33°42' W 118°09'0 0.0
2014-Jul-17 03:30N 33°42' W 118°09'0 0.0
2014-Jul-17 02:33N 33°42' W 118°09'0 0.0
2014-Jul-17 01:27N 33°42' W 118°09'0 0.0
2014-Jul-17 00:21N 33°42' W 118°09'0 0.0
2014-Jul-16 23:27N 33°42' W 118°09'0 0.1
2014-Jul-16 22:33N 33°42' W 118°09'0 0.1
2014-Jul-16 21:33N 33°42' W 118°09'0 0.1
2014-Jul-16 20:33N 33°42' W 118°09'0 0.0
2014-Jul-16 17:27N 33°42' W 118°09'0 0.0
2014-Jul-16 16:21N 33°42' W 118°09'1 1.5
2014-Jul-16 15:33N 33°41' W 118°10'9 9.0
2014-Jul-16 14:33N 33°32' W 118°08'1111.2
2014-Jul-16 13:33N 33°21' W 118°04'1111.2
2014-Jul-16 12:34N 33°12' W 117°57'1111.2
2014-Jul-16 11:33N 33°01' W 117°54'1211.6
2014-Jul-16 10:33N 32°50' W 117°51'5 5.3
2014-Jul-16 09:33N 32°44' W 117°49'7 7.0
2014-Jul-16 08:34N 32°38' W 117°45'1111.0
2014-Jul-16 07:34N 32°27' W 117°45'1212.3
2014-Jul-16 06:33N 32°15' W 117°41'1212.1
2014-Jul-16 05:32N 32°03' W 117°37'2611.8
2014-Jul-16 03:22N 31°39' W 117°29'1111.3
2014-Jul-16 02:26N 31°28' W 117°28'  
Track history (hours):
 
Tides and Currents Weather Stations Pressure Air Temp Water Temp Dewpoint Dewpoint Depression Visibility Wind Speed Wind Dir Waves Ship Positions

Aqualoyalty

Last reported at 2014-Jul-25 05:13 UTC. Time now 2014-Jul-31 11:36 UTC.
Position N 27°31' W 115°43'.

Length 249 m; draft 8.5 m.

Type: Tanker. MMSI: 636015177.

Date/timePositionNaut miles runAvg speedWind from/ knotsBaromVisibWave heightAir tempDewpointWater temp
2014-Jul-25 05:13N 27°31' W 115°43'1012.8
2014-Jul-25 04:28N 27°38' W 115°50'1213.6
2014-Jul-25 03:33N 27°48' W 115°59'1212.3
2014-Jul-25 02:33N 27°57' W 116°07'1311.9
2014-Jul-25 01:26N 28°08' W 116°16'1112.1
2014-Jul-25 00:33N 28°17' W 116°23'1212.1
2014-Jul-24 23:33N 28°26' W 116°31'1211.5
2014-Jul-24 22:33N 28°36' W 116°39'59 9.9
2014-Jul-24 16:33N 29°23' W 117°20'16 7.5
2014-Jul-24 14:29N 29°36' W 117°31'1612.0
2014-Jul-24 13:10N 29°48' W 117°41'812.1
2014-Jul-24 12:32N 29°54' W 117°47'1212.3
2014-Jul-24 11:33N 30°04' W 117°55'1212.3
2014-Jul-24 10:33N 30°14' W 118°03'1212.3
2014-Jul-24 09:33N 30°23' W 118°12'1212.2
2014-Jul-24 08:33N 30°33' W 118°21'1212.2
2014-Jul-24 07:33N 30°43' W 118°29'1212.3
2014-Jul-24 06:33N 30°53' W 118°38'1212.1
2014-Jul-24 05:33N 31°03' W 118°46'1211.8
2014-Jul-24 04:33N 31°12' W 118°54'1212.2
2014-Jul-24 03:33N 31°21' W 119°03'1212.1
2014-Jul-24 02:33N 31°31' W 119°12'1212.2
2014-Jul-24 01:33N 31°41' W 119°20'1212.5
2014-Jul-24 00:33N 31°51' W 119°29'1212.4
2014-Jul-23 23:34N 32°01' W 119°38'1212.1
2014-Jul-23 22:33N 32°11' W 119°46'1212.2
2014-Jul-23 21:33N 32°21' W 119°54'1212.3
2014-Jul-23 20:33N 32°30' W 120°04'1212.1
2014-Jul-23 19:33N 32°40' W 120°13'1611.9
2014-Jul-23 18:13N 32°52' W 120°24'811.9
2014-Jul-23 17:31N 32°59' W 120°30'1212.1
2014-Jul-23 16:33N 33°09' W 120°38'1312.9
2014-Jul-23 15:33N 33°19' W 120°47'1212.5
2014-Jul-23 14:33N 33°29' W 120°57'1711.9
2014-Jul-23 13:08N 33°42' W 121°08'712.1
2014-Jul-23 12:33N 33°48' W 121°13'2511.9
2014-Jul-23 10:28N 34°08' W 121°31'1212.5
2014-Jul-23 09:33N 34°17' W 121°39'1212.6
2014-Jul-23 08:33N 34°28' W 121°47'1212.5
2014-Jul-23 07:33N 34°39' W 121°55'1211.9
2014-Jul-23 06:32N 34°49' W 122°02'1211.9
2014-Jul-23 05:33N 34°60' W 122°09'1212.0
2014-Jul-23 04:31N 35°11' W 122°17'1111.7
2014-Jul-23 03:33N 35°20' W 122°23'1211.7
2014-Jul-23 02:33N 35°30' W 122°30'1211.8
2014-Jul-23 01:30N 35°41' W 122°38'1112.1
2014-Jul-23 00:33N 35°51' W 122°45'1211.5
2014-Jul-22 23:29N 36°02' W 122°52'1211.5
2014-Jul-22 22:29N 36°12' W 122°59'2211.3
2014-Jul-22 20:32N 36°33' W 123°09'1111.3
2014-Jul-22 19:33N 36°44' W 123°10'1111.1
2014-Jul-22 18:33N 36°54' W 123°07'1010.4
2014-Jul-22 17:33N 37°05' W 123°07'1010.2
2014-Jul-22 16:33N 37°15' W 123°08'1010.0
2014-Jul-22 15:33N 37°25' W 123°08'9 9.2
2014-Jul-22 14:33N 37°34' W 123°04'1110.7
2014-Jul-22 13:33N 37°40' W 122°53'1010.3
2014-Jul-22 12:33N 37°46' W 122°42'1312.6
2014-Jul-22 11:33N 37°50' W 122°27'6 5.5
2014-Jul-22 10:32N 37°46' W 122°22'0 0.0
2014-Jul-22 09:32N 37°46' W 122°22'0 0.0
2014-Jul-22 08:32N 37°46' W 122°22'0 0.0
2014-Jul-22 07:32N 37°46' W 122°22'0 0.1
2014-Jul-22 06:32N 37°46' W 122°21'0 0.1
2014-Jul-22 05:32N 37°46' W 122°22'0 0.2
2014-Jul-22 04:32N 37°46' W 122°21'0 0.1
2014-Jul-22 03:32N 37°46' W 122°21'0 0.4
2014-Jul-22 02:33N 37°46' W 122°22'10 9.9
2014-Jul-22 01:33N 37°55' W 122°27'8 8.0
2014-Jul-22 00:33N 38°02' W 122°22'1110.9
2014-Jul-21 23:33N 38°02' W 122°08'0 0.0
2014-Jul-20 17:10N 38°02' W 122°07'1 0.9
2014-Jul-20 16:34N 38°02' W 122°08'7 7.1
2014-Jul-20 15:34N 38°04' W 122°17'1010.3
2014-Jul-20 14:34N 37°57' W 122°27'8 8.0
2014-Jul-20 13:34N 37°49' W 122°29'1211.8
2014-Jul-20 12:34N 37°44' W 122°42'9 9.4
2014-Jul-20 11:34N 37°38' W 122°52'1010.3
2014-Jul-20 10:33N 37°32' W 123°03'10 9.6
2014-Jul-20 09:33N 37°23' W 123°06'9 9.0
2014-Jul-20 08:33N 37°15' W 123°10'4 4.1
2014-Jul-20 07:34N 37°11' W 123°08'3 2.5
2014-Jul-20 06:33N 37°08' W 123°08'9 9.1
2014-Jul-20 05:34N 37°15' W 123°17'2 2.1
2014-Jul-20 04:33N 37°17' W 123°18'5 4.6
2014-Jul-20 03:34N 37°12' W 123°15'1110.7
2014-Jul-20 02:34N 37°02' W 123°11'1111.3
2014-Jul-20 01:34N 36°51' W 123°09'1211.7
2014-Jul-20 00:34N 36°40' W 123°08'1211.5
2014-Jul-19 23:33N 36°28' W 123°08'1111.2
2014-Jul-19 22:32N 36°17' W 123°03'1111.5
2014-Jul-19 21:33N 36°08' W 122°55'1211.6
2014-Jul-19 20:33N 35°58' W 122°48'1111.3
2014-Jul-19 19:33N 35°48' W 122°42'1111.1
2014-Jul-19 18:33N 35°38' W 122°36'1111.0
2014-Jul-19 17:33N 35°28' W 122°28'1111.3
2014-Jul-19 16:33N 35°19' W 122°21'1313.3
2014-Jul-19 15:33N 35°07' W 122°13'1211.4
2014-Jul-19 14:32N 34°57' W 122°06'1111.6
2014-Jul-19 13:33N 34°47' W 121°59'1111.2
2014-Jul-19 12:34N 34°38' W 121°51'1111.2
2014-Jul-19 11:33N 34°29' W 121°43'1110.5
2014-Jul-19 10:32N 34°19' W 121°39'1010.5
2014-Jul-19 09:33N 34°11' W 121°31'1111.2
2014-Jul-19 08:32N 34°04' W 121°20'7610.4
2014-Jul-19 01:14N 33°43' W 119°52'811.4
2014-Jul-19 00:32N 33°43' W 119°43'1111.2
2014-Jul-18 23:32N 33°43' W 119°29'5611.2
2014-Jul-18 18:31N 33°35' W 118°23'9 8.9
2014-Jul-18 17:33N 33°38' W 118°13'7 6.8
2014-Jul-18 16:32N 33°45' W 118°13'4 0.1
2014-Jul-17 08:12N 33°42' W 118°09'0 0.0
2014-Jul-17 07:21N 33°42' W 118°09'0 0.1
2014-Jul-17 06:30N 33°42' W 118°09'0 0.0
2014-Jul-17 05:18N 33°42' W 118°09'0 0.0
2014-Jul-17 04:21N 33°42' W 118°09'0 0.0
2014-Jul-17 03:30N 33°42' W 118°09'0 0.0
2014-Jul-17 02:33N 33°42' W 118°09'0 0.0
2014-Jul-17 01:27N 33°42' W 118°09'0 0.0
2014-Jul-17 00:21N 33°42' W 118°09'0 0.0
2014-Jul-16 23:27N 33°42' W 118°09'0 0.1
2014-Jul-16 22:33N 33°42' W 118°09'0 0.1
2014-Jul-16 21:33N 33°42' W 118°09'0 0.1
2014-Jul-16 20:33N 33°42' W 118°09'0 0.0
2014-Jul-16 17:27N 33°42' W 118°09'0 0.0
2014-Jul-16 16:21N 33°42' W 118°09'1 1.5
2014-Jul-16 15:33N 33°41' W 118°10'9 9.0
2014-Jul-16 14:33N 33°32' W 118°08'1111.2
2014-Jul-16 13:33N 33°21' W 118°04'1111.2
2014-Jul-16 12:34N 33°12' W 117°57'1111.2
2014-Jul-16 11:33N 33°01' W 117°54'1211.6
2014-Jul-16 10:33N 32°50' W 117°51'5 5.3
2014-Jul-16 09:33N 32°44' W 117°49'7 7.0
2014-Jul-16 08:34N 32°38' W 117°45'1111.0
2014-Jul-16 07:34N 32°27' W 117°45'1212.3
2014-Jul-16 06:33N 32°15' W 117°41'1212.1
2014-Jul-16 05:32N 32°03' W 117°37'2611.8
2014-Jul-16 03:22N 31°39' W 117°29'1111.3
2014-Jul-16 02:26N 31°28' W 117°28'  

Dump ship's entire track history